Flag for Poland Weather past 2 weeks in Lublin, Poland

Now
51 °F

Fog.


Feels Like: 51 °F
Forecast: 51 / 71 °F
Wind: 3 mph from Northwest

Location: Lublin Radawiec

Current Time: Aug 28, 2014 at 7:43:28 AM

Latest Report: Aug 28, 2014 at 7:00 AM


Visibility: 2 mi

Pressure: 29.99 "Hg

Humidity: 98%

Dew point: 51 °F

Location of LublinLocation

Historic Weather in Lublin — Graph

°F

Lublin temperature yesterday

Maximum temperature yesterday: 62 °F (at 1:00 PM)
Minimum temperature yesterday: 51 °F (at 7:00 AM)
Average temperature yesterday: 56 °F

Past Weeks' High & Low Weather Summary

 TemperatureHumidityPressure
High74 °F (Aug 18, 4:00 PM)99% (Aug 13, 8:00 AM)30.11 "Hg (Aug 13, 8:00 AM)
Low45 °F (Aug 22, 2:00 AM)47% (Aug 18, 5:00 PM)29.61 "Hg (Aug 14, 2:00 AM)
Average59 °F82%29.91 "Hg
* Reported Aug 13 8:00 AM — Aug 28 6:00 AM, Lublin, Weather by CustomWeather, © 2014

Note: Actual official high and low records may vary slightly from our data, if they occured in-between our weather recording intervals... More about our weather records

Advertising

Lublin weather history for previous 24 hours

 ConditionsComfort  
Time TempWeatherWind HumidityBarometerVisibility
6:00 AM
Aug 28
50 °FFog.5 mph98%29.98 "Hg2 mi
5:00 AM51 °FFog.3 mph97%29.96 "Hg4 mi
4:00 AM51 °FPassing clouds.5 mph97%29.94 "Hg6 mi
3:00 AM52 °FLow clouds.3 mph96%29.93 "Hg7 mi
2:00 AM53 °FLow clouds.5 mph95%29.93 "Hg11 mi
1:00 AM53 °FRain showers. Low clouds.5 mph96%29.92 "Hg3 mi
12:00 AM53 °FSprinkles. Low clouds.5 mph96%29.91 "Hg5 mi
11:00 PM
Aug 27
53 °FSprinkles. Overcast.6 mph95%29.91 "Hg4 mi
10:00 PM54 °FSprinkles. Overcast.6 mph93%29.90 "Hg7 mi
9:00 PM55 °FSprinkles. Overcast.3 mph88%29.88 "Hg11 mi
8:00 PM57 °FSprinkles. Overcast.5 mph80%29.88 "Hg11 mi
7:00 PM58 °FOvercast.2 mph75%29.86 "Hg22 mi
6:00 PM60 °FOvercast.3 mph66%29.85 "Hg28 mi
5:00 PM61 °FOvercast.3 mph65%29.84 "Hg25 mi
4:00 PM61 °FOvercast.5 mph63%29.83 "Hg19 mi
3:00 PM62 °FOvercast.5 mph62%29.82 "Hg22 mi
2:00 PM61 °FOvercast.3 mph62%29.83 "Hg19 mi
1:00 PM62 °FOvercast.5 mph62%29.82 "Hg19 mi
12:00 PM61 °FOvercast.3 mph63%29.82 "Hg14 mi
11:00 AM59 °FPartly sunny.2 mph73%29.83 "Hg9 mi
10:00 AM57 °FFog.1 mph82%29.82 "Hg6 mi
9:00 AM52 °FFog.2 mph93%29.83 "Hg2 mi
8:00 AM51 °FFog.2 mph95%29.82 "Hg1 mi
7:00 AM51 °FFog.3 mph97%29.82 "Hg1 mi
Weather by CustomWeather, © 2014

See weather overviewHow to use our weather pages